FW1189 Weather Reports


time (UTC)temp
F
wind
direction
speed
knots
gust
knots
rain 1hr
in
rain 24hr
in
rain mn
in
humidity
%
barometer
mb
20260505181804 42 85 7.8 15.6 0.00 0.43 0.41 89 1009.5
20260505181525 42 85 7.0 13.0 0.00 0.43 0.41 90 1009.7
20260505181225 41 86 7.8 17.4 0.00 0.43 0.41 90 1009.5
20260505180904 41 90 7.8 17.4 0.00 0.43 0.41 91 1009.6
20260505180604 41 89 8.7 17.4 0.00 0.43 0.41 92 1009.6
20260505180304 41 83 7.8 13.0 0.00 0.43 0.41 92 1009.5
20260505180025 41 83 7.8 13.0 0.00 0.43 0.41 92 1009.4
20260505175724 41 86 7.0 12.2 0.00 0.43 0.41 92 1009.5
20260505175404 41 86 7.8 13.0 0.00 0.43 0.41 91 1009.3
20260505175105 42 88 7.8 19.1 0.00 0.43 0.41 92 1009.6
20260505174825 42 88 9.6 19.1 0.00 0.43 0.41 91 1009.8
20260505174504 42 84 10.4 19.1 0.00 0.43 0.41 90 1009.6
20260505174226 42 87 10.4 19.1 0.00 0.43 0.41 90 1009.5
20260505173904 42 83 9.6 19.1 0.00 0.43 0.41 89 1009.6
20260505173604 42 87 8.7 15.6 0.00 0.43 0.41 90 1009.5
20260505173304 42 81 7.8 15.6 0.00 0.43 0.41 90 1009.7
20260505173004 41 79 7.0 15.6 0.00 0.43 0.41 91 1009.7
20260505172704 41 81 8.7 18.2 0.00 0.43 0.41 92 1009.5
20260505172405 41 80 7.8 18.2 0.00 0.43 0.41 93 1009.6
20260505172103 41 82 8.7 18.2 0.00 0.43 0.41 93 1009.5
20260505171804 41 82 7.8 18.2 0.00 0.43 0.41 92 1009.5
20260505171504 41 85 7.0 13.9 0.00 0.43 0.41 93 1009.8
20260505171225 42 86 6.1 13.0 0.00 0.43 0.41 93 1009.7
20260505170904 42 86 5.2 11.3 0.00 0.43 0.41 91 1009.7
20260505170605 42 84 4.3 11.3 0.00 0.43 0.41 91 1009.8
20260505170305 43 90 4.3 11.3 0.00 0.43 0.41 89 1009.9
20260505170025 43 91 4.3 12.2 0.00 0.43 0.41 89 1009.8
20260505165703 43 86 5.2 13.0 0.00 0.43 0.41 88 1009.9
20260505165425 43 85 4.3 13.0 0.00 0.43 0.41 88 1010.0
20260505165104 43 81 4.3 13.0 0.00 0.43 0.41 89 1009.8
20260505164804 43 78 1.7 12.2 0.00 0.43 0.41 90 1009.8
20260505164505 44 73 1.7 12.2 0.00 0.43 0.41 90 1009.8
20260505164204 44 92 0.9 3.5 0.00 0.43 0.41 92 1009.8
20260505163904 44 112 0.9 3.5 0.00 0.43 0.41 92 1009.9
20260505163604 44 133 0.9 3.5 0.00 0.43 0.41 91 1009.7
20260505163303 44 155 0.9 3.5 0.00 0.43 0.41 90 1009.5
20260505163004 44 147 0.9 3.5 0.00 0.43 0.41 90 1009.8
20260505162703 45 131 0.9 3.5 0.00 0.43 0.41 89 1009.9
20260505162404 44 110 1.7 6.1 0.00 0.43 0.41 88 1009.8
20260505162104 45 95 2.6 6.1 0.00 0.43 0.41 88 1009.7
20260505161803 45 94 3.5 9.6 0.00 0.43 0.41 84 1009.8
20260505161505 45 93 4.3 9.6 0.00 0.43 0.41 84 1009.7
20260505161225 45 91 6.1 13.9 0.00 0.43 0.41 82 1009.8
20260505160905 45 91 7.0 13.9 0.00 0.43 0.41 85 1009.9
20260505160603 45 90 7.0 13.9 0.00 0.43 0.41 83 1009.9
20260505160325 44 93 5.2 13.9 0.00 0.43 0.41 87 1009.9
20260505153304 45 87 2.6 13.9 0.00 0.43 0.41 86 1010.0
20260505153004 46 106 0.9 5.2 0.00 0.43 0.41 87 1009.8
20260505152703 46 125 0.9 3.5 0.00 0.43 0.41 88 1009.9
20260505152403 46 139 0.9 5.2 0.00 0.43 0.41 88 1009.8
20260505152105 46 121 1.7 5.2 0.00 0.43 0.41 86 1009.9
20260505151825 46 125 2.6 9.6 0.00 0.43 0.41 83 1009.7
20260505151504 46 113 3.5 9.6 0.00 0.43 0.41 83 1009.8
20260505151204 45 108 5.2 15.6 0.00 0.43 0.41 83 1009.7
20260505150903 44 102 7.0 15.6 0.00 0.43 0.41 82 1009.8
20260505150604 44 99 7.0 15.6 0.00 0.43 0.41 82 1009.8
20260505150304 44 97 5.2 15.6 0.00 0.43 0.41 83 1009.7
20260505140604 44 98 5.2 18.2 0.00 0.43 0.41 82 1010.0
20260505140303 44 102 5.2 18.2 0.00 0.43 0.41 82 1009.9
20260505130304 45 166 0.9 3.5 0.00 0.43 0.41 92 1010.2
20260505124804 45 139 1.7 5.2 0.00 0.43 0.41 92 1010.4
20260505124525 44 145 0.9 3.5 0.00 0.43 0.41 94 1010.6
20260505124225 44 129 0.9 3.5 0.00 0.43 0.41 94 1010.2
20260505123904 44 149 0.9 3.5 0.00 0.43 0.41 93 1010.4
20260505123603 44 183 0.9 3.5 0.00 0.43 0.41 93 1010.3
20260505123304 44 208 0.9 3.5 0.00 0.43 0.41 93 1010.4
20260505123025 45 204 0.9 3.5 0.00 0.43 0.41 93 1010.3
20260505122704 46 146 0.9 3.5 0.00 0.43 0.41 93 1010.4
20260505122403 46 130 0.0 3.5 0.00 0.43 0.41 92 1010.4
20260505122125 46 143 0.0 3.5 0.00 0.43 0.41 90 1010.3
20260505121804 46 198 0.0 1.7 0.00 0.43 0.41 90 1010.5
20260505121504 45 304 0.0 3.5 0.00 0.43 0.41 91 1010.3
20260505121203 44 325 0.0 3.5 0.00 0.43 0.41 92 1010.5
20260505120904 43 328 0.9 3.5 0.00 0.43 0.41 92 1010.5
20260505120604 44 325 0.9 3.5 0.00 0.43 0.41 91 1010.6
20260505120325 44 317 0.9 3.5 0.00 0.43 0.41 91 1010.5
20260505120004 44 296 0.9 1.7 0.00 0.43 0.41 92 1010.5
20260505115725 45 185 0.9 1.7 0.00 0.43 0.41 92 1010.3
20260505115404 44 155 0.0 1.7 0.00 0.43 0.41 90 1010.5
20260505115104 44 188 0.9 1.7 0.00 0.43 0.41 91 1010.5
20260505114804 44 253 0.9 3.5 0.00 0.43 0.41 93 1010.3
20260505114504 43 257 0.0 3.5 0.00 0.43 0.41 92 1010.3
20260505114203 43 231 0.9 3.5 0.00 0.43 0.41 94 1010.5
20260505113903 43 222 0.9 3.5 0.00 0.43 0.41 94 1010.5
20260505113604 43 230 0.9 3.5 0.00 0.43 0.41 93 1010.4
20260505113304 43 203 0.9 3.5 0.00 0.43 0.41 94 1010.7
20260505113003 43 205 0.9 3.5 0.00 0.43 0.41 94 1010.6
20260505112703 42 192 0.9 3.5 0.00 0.43 0.41 94 1010.6
20260505112403 43 167 1.7 5.2 0.00 0.43 0.41 94 1010.6
20260505112103 42 141 0.9 5.2 0.00 0.43 0.41 95 1010.5
20260505111803 42 116 0.9 5.2 0.00 0.43 0.41 95 1010.5
20260505111524 42 99 0.9 5.2 0.00 0.43 0.41 95 1010.4
20260505111204 42 115 0.9 1.7 0.00 0.43 0.41 96 1010.4
20260505110904 42 108 0.0 1.7 0.00 0.43 0.41 96 1010.7
20260505110625 42 331 0.9 1.7 0.00 0.43 0.41 97 1010.5
20260505110304 41 321 0.9 1.7 0.00 0.43 0.41 97 1010.7
20260505102124 40 263 0.0 1.7 0.00 0.43 0.41 95 1010.7
20260505101803 40 256 0.9 3.5 0.00 0.43 0.41 94 1010.8
20260505101503 41 259 0.9 3.5 0.00 0.43 0.41 94 1010.8
20260505101203 41 261 0.9 3.5 0.00 0.43 0.41 95 1010.6
20260505100925 42 279 0.9 3.5 0.00 0.43 0.41 95 1010.7
20260505100603 41 299 0.0 1.7 0.00 0.43 0.41 95 1010.6
20260505100325 40 306 0.0 1.7 0.00 0.43 0.41 95 1010.7
20260505100003 40 286 0.0 1.7 0.00 0.43 0.41 95 1010.5
20260505095703 41 258 0.0 1.7 0.00 0.43 0.41 96 1011.0
20260505095425 41 265 0.0 1.7 0.00 0.43 0.41 96 1010.6
20260505095103 40 267 0.0 1.7 0.00 0.43 0.41 95 1010.6
20260505094804 40 273 0.0 1.7 0.00 0.43 0.41 95 1010.9
20260505094504 40 272 0.0 1.7 0.00 0.43 0.41 95 1010.8
20260505094203 40 275 0.0 1.7 0.00 0.43 0.41 95 1010.7
20260505093903 40 270 0.0 1.7 0.00 0.43 0.41 95 1010.7
20260505093603 40 202 0.0 1.7 0.00 0.43 0.41 95 1010.7
20260505093304 40 186 0.0 1.7 0.00 0.43 0.41 95 1010.7
20260505093004 40 197 0.9 1.7 0.00 0.43 0.41 95 1010.8
20260505092703 40 206 0.9 1.7 0.00 0.43 0.41 94 1010.7
20260505092404 40 256 0.9 1.7 0.00 0.43 0.41 94 1011.0
20260505092104 40 303 0.9 3.5 0.00 0.43 0.41 94 1010.9
20260505091803 39 308 0.9 3.5 0.00 0.43 0.41 94 1010.9
20260505091504 40 326 0.9 3.5 0.00 0.43 0.41 94 1010.9
20260505091203 40 83 0.9 6.1 0.00 0.43 0.41 94 1010.8
20260505090904 40 89 1.7 7.0 0.00 0.43 0.41 93 1010.7
20260505090605 40 80 1.7 7.0 0.00 0.43 0.41 93 1010.6
20260505090303 40 68 1.7 7.0 0.00 0.43 0.41 93 1010.7
20260505090004 40 355 0.9 3.5 0.00 0.43 0.41 92 1010.8
20260505085725 40 319 0.9 3.5 0.00 0.43 0.41 92 1010.7
20260505085403 40 343 0.9 3.5 0.00 0.43 0.41 92 1010.8
20260505085103 40 59 0.9 3.5 0.00 0.43 0.41 91 1010.7
20260505084803 42 96 0.9 1.7 0.00 0.43 0.41 92 1010.7
20260505084524 42 104 0.9 3.5 0.00 0.43 0.41 92 1010.7
20260505084203 42 160 0.9 3.5 0.00 0.43 0.41 91 1010.8
20260505083903 43 203 0.9 3.5 0.00 0.43 0.41 90 1010.7
20260505083604 44 231 0.9 3.5 0.00 0.43 0.41 91 1010.6
20260505083304 44 272 0.9 3.5 0.00 0.43 0.41 93 1010.6
20260505083005 43 293 0.9 3.5 0.00 0.43 0.41 94 1010.6
20260505082704 42 314 1.7 3.5 0.00 0.43 0.41 95 1010.8
20260505082425 41 325 1.7 3.5 0.00 0.43 0.41 94 1010.6
20260505082125 40 327 1.7 3.5 0.00 0.43 0.41 95 1010.3
20260505081824 39 329 1.7 3.5 0.00 0.43 0.41 97 1010.6
20260505081524 39 330 1.7 3.5 0.00 0.43 0.41 97 1010.5
20260505081204 39 336 1.7 3.5 0.00 0.43 0.41 97 1010.5
20260505080904 38 338 1.7 3.5 0.00 0.43 0.41 97 1010.5
20260505080603 38 341 0.9 3.5 0.00 0.43 0.41 97 1010.6
20260505080303 38 341 0.9 3.5 0.00 0.43 0.41 97 1010.6
20260505080025 38 344 0.9 3.5 0.00 0.43 0.41 97 1010.5
20260505075725 38 346 0.9 3.5 0.00 0.43 0.41 97 1010.6
20260505075404 37 338 0.9 3.5 0.00 0.43 0.41 98 1010.6
20260505075103 37 333 0.9 3.5 0.00 0.43 0.41 97 1010.6
20260505074825 37 333 1.7 3.5 0.00 0.43 0.41 97 1010.6
20260505074503 37 336 0.9 3.5 0.01 0.43 0.41 97 1010.6
20260505074203 37 333 0.9 3.5 0.01 0.43 0.41 97 1010.9
20260505073903 37 332 0.9 3.5 0.01 0.43 0.41 97 1010.7
20260505073603 37 329 0.9 3.5 0.01 0.43 0.41 97 1011.0
20260505073303 36 327 0.9 3.5 0.01 0.43 0.41 97 1010.8
20260505073025 36 329 0.9 1.7 0.01 0.43 0.41 97 1010.7
20260505072703 36 332 0.0 1.7 0.01 0.43 0.41 97 1010.8
20260505072403 36 330 0.0 1.7 0.01 0.43 0.41 97 1010.8
20260505072103 36 331 0.0 1.7 0.01 0.43 0.41 97 1010.6
20260505071803 36 334 0.0 1.7 0.01 0.43 0.41 97 1010.8
20260505071504 36 340 0.0 1.7 0.01 0.43 0.41 97 1010.7
20260505071224 36 338 0.0 1.7 0.01 0.43 0.41 97 1010.8
20260505070903 36 333 0.0 1.7 0.01 0.43 0.41 97 1010.8
20260505070603 36 277 0.0 1.7 0.02 0.43 0.41 97 1010.8
20260505070303 37 227 0.0 1.7 0.02 0.43 0.41 97 1011.0
20260505070025 37 217 0.0 1.7 0.04 0.43 0.41 97 1010.8
20260505065703 37 205 0.0 1.7 0.05 0.43 0.41 97 1010.9
20260505065403 37 163 0.0 1.7 0.05 0.43 0.41 97 1010.8
20260505065103 37 0 0.0 0.0 0.07 0.43 0.41 97 1011.0
20260505064804 37 0 0.0 0.0 0.08 0.43 0.41 97 1010.9
20260505064524 37 90 0.0 1.7 0.08 0.41 0.40 97 1010.6
20260505064204 37 94 0.9 3.5 0.09 0.41 0.40 97 1010.9
20260505063903 36 96 0.9 3.5 0.11 0.41 0.40 97 1010.8
20260505063603 37 100 0.9 3.5 0.12 0.41 0.40 96 1010.9
20260505063303 37 94 0.9 1.7 0.13 0.41 0.40 96 1010.9
20260505063003 36 94 0.0 1.7 0.15 0.41 0.40 96 1011.0
20260505062704 36 83 0.0 1.7 0.17 0.41 0.40 96 1011.0
20260505062424 36 67 0.0 1.7 0.18 0.41 0.40 96 1011.0
20260505062124 36 0 0.0 0.0 0.20 0.41 0.40 96 1010.8
20260505061803 36 337 0.0 1.7 0.21 0.41 0.40 96 1010.9
20260505061503 36 337 0.0 1.7 0.22 0.41 0.40 96 1010.9
20260505061203 36 337 0.0 1.7 0.24 0.41 0.40 96 1010.9
20260505060903 36 337 0.0 1.7 0.24 0.41 0.40 96 1011.0
20260505060624 36 339 0.0 1.7 0.22 0.40 0.39 95 1010.9
20260505060303 36 341 0.0 3.5 0.22 0.40 0.39 95 1011.0
20260505060003 36 342 0.0 3.5 0.22 0.39 0.38 95 1011.0
20260505055703 36 342 0.0 3.5 0.22 0.38 0.37 95 1011.2
20260505055403 36 340 0.0 3.5 0.22 0.37 0.35 95 1011.0
20260505055103 36 340 0.9 3.5 0.21 0.35 0.34 95 1011.2
20260505054804 36 339 1.7 3.5 0.21 0.34 0.33 95 1011.2
20260505054503 36 341 1.7 5.2 0.20 0.33 0.32 95 1011.1
20260505054204 36 340 1.7 5.2 0.19 0.32 0.31 95 1011.0
20260505053904 36 340 0.9 5.2 0.19 0.31 0.30 95 1011.0
20260505053603 36 340 0.9 3.5 0.18 0.30 0.28 95 1011.0
20260505053303 36 344 0.9 3.5 0.15 0.27 0.26 94 1011.2
20260505053003 36 348 0.9 3.5 0.14 0.26 0.25 95 1011.0
20260505052703 36 349 0.9 3.5 0.13 0.25 0.24 95 1010.9
20260505052403 36 347 0.9 3.5 0.13 0.24 0.22 95 1011.1
20260505052102 37 344 0.9 3.5 0.11 0.21 0.20 94 1011.0
20260505051825 37 344 0.9 3.5 0.11 0.20 0.19 94 1011.2
20260505051504 37 342 1.7 3.5 0.11 0.19 0.18 94 1011.2
20260505051203 37 338 1.7 3.5 0.09 0.18 0.17 93 1011.1
20260505050903 37 334 0.9 3.5 0.11 0.18 0.17 93 1011.2
20260505050603 37 332 1.7 3.5 0.11 0.18 0.17 93 1011.1
20260505050302 37 340 1.7 3.5 0.11 0.17 0.15 93 1011.0
20260505041503 37 346 2.6 6.1 0.07 0.08 0.07 92 1011.3
20260505041225 37 341 2.6 6.1 0.07 0.08 0.07 92 1011.2
20260505040903 37 338 2.6 6.1 0.06 0.07 0.06 92 1011.2
20260505040603 37 343 2.6 6.1 0.06 0.07 0.06 92 1011.4
20260505040325 37 344 2.6 5.2 0.05 0.06 0.05 92 1011.2
20260505040004 37 345 1.7 5.2 0.05 0.06 0.05 92 1011.2
20260505035703 37 339 1.7 5.2 0.04 0.05 0.04 93 1011.4
20260505035424 37 340 1.7 3.5 0.04 0.05 0.04 93 1011.4
20260505035102 37 347 1.7 3.5 0.04 0.05 0.04 92 1011.5
20260505034803 37 349 0.9 3.5 0.04 0.05 0.04 92 1011.3
20260505034503 37 345 0.9 3.5 0.04 0.05 0.04 92 1011.3
20260505034203 37 337 0.9 1.7 0.04 0.05 0.04 92 1011.3
20260505033903 37 337 0.9 1.7 0.02 0.04 0.02 91 1011.4
20260505033603 37 337 0.9 1.7 0.02 0.04 0.02 90 1011.4
20260505033303 37 337 0.0 1.7 0.01 0.02 0.01 89 1011.4
20260505033003 37 337 0.0 1.7 0.01 0.02 0.01 89 1011.2
20260505032705 37 0 0.0 1.7 0.01 0.02 0.01 89 1011.4
20260505032403 37 0 0.0 1.7 0.00 0.01 0.00 90 1011.2
20260505032103 37 0 0.0 1.7 0.00 0.01 0.00 90 1011.3
20260505031803 37 67 0.0 1.7 0.00 0.01 0.00 89 1011.3
20260505031503 37 67 0.0 1.7 0.00 0.01 0.00 89 1011.4
20260505031224 37 67 0.0 1.7 0.00 0.01 0.00 89 1011.1
20260505030903 37 67 0.0 1.7 0.00 0.01 0.00 89 1011.2
20260505030603 37 67 0.0 1.7 0.00 0.01 0.00 89 1011.4
20260505030303 37 67 0.0 1.7 0.00 0.01 0.00 89 1011.4
20260505030003 37 0 0.0 1.7 0.00 0.01 0.00 89 1011.4
20260505025703 37 0 0.0 1.7 0.00 0.01 0.00 88 1011.5
20260505025403 37 87 0.0 1.7 0.00 0.01 0.00 88 1011.3
20260505025103 37 88 0.9 1.7 0.00 0.01 0.00 88 1011.4
20260505024803 37 90 0.9 1.7 0.00 0.01 0.00 88 1011.6
20260505024503 37 86 0.9 3.5 0.00 0.01 0.00 88 1011.6
20260505024202 37 87 1.7 5.2 0.00 0.01 0.00 88 1011.7
20260505023903 37 90 2.6 5.2 0.00 0.01 0.00 88 1011.6
20260505023603 37 95 2.6 5.2 0.00 0.01 0.00 88 1011.6
20260505023303 38 98 1.7 5.2 0.00 0.01 0.00 88 1011.8
20260505023003 38 110 0.9 3.5 0.00 0.01 0.00 87 1011.9
20260505022702 38 0 0.0 1.7 0.00 0.01 0.00 86 1011.9
20260505022403 38 0 0.0 0.0 0.00 0.01 0.00 85 1011.7
20260505022102 38 0 0.0 0.0 0.00 0.01 0.00 84 1011.9
20260505021803 38 0 0.0 0.0 0.00 0.01 0.00 84 1012.0
20260505021524 38 315 0.0 1.7 0.00 0.01 0.00 84 1011.9
20260505021203 38 315 0.0 1.7 0.00 0.01 0.00 83 1012.2
20260505020903 38 315 0.0 1.7 0.00 0.01 0.00 84 1012.1
20260505020603 38 315 0.0 1.7 0.00 0.01 0.00 84 1012.1
20260505020304 38 0 0.0 1.7 0.00 0.01 0.00 85 1012.4
20260505020003 38 0 0.0 1.7 0.00 0.01 0.00 83 1012.2
20260505015703 39 0 0.0 1.7 0.00 0.01 0.00 82 1012.3
20260505015403 39 0 0.0 1.7 0.00 0.01 0.00 82 1012.3
20260505015103 39 337 0.0 1.7 0.00 0.01 0.00 81 1012.4
20260505014803 39 337 0.0 1.7 0.00 0.01 0.00 81 1012.5
20260505014524 39 331 0.0 1.7 0.00 0.01 0.00 81 1012.8
20260505014204 39 320 0.0 1.7 0.00 0.01 0.00 80 1012.5
20260505013902 39 0 0.0 1.7 0.00 0.01 0.00 82 1012.5
20260505013603 39 326 0.0 1.7 0.00 0.01 0.00 81 1012.5
20260505013303 39 329 0.0 1.7 0.00 0.01 0.00 80 1012.8
20260505013024 39 332 0.0 1.7 0.00 0.01 0.00 80 1012.6
20260505012703 39 355 0.0 1.7 0.00 0.01 0.00 80 1012.5
20260505012424 39 64 0.0 3.5 0.00 0.01 0.00 79 1012.7
20260505012102 39 77 0.9 3.5 0.00 0.01 0.00 77 1012.7
20260505011803 39 72 0.9 3.5 0.00 0.01 0.00 77 1012.7
20260505011504 39 68 0.0 3.5 0.00 0.01 0.00 77 1012.8
20260505011224 39 68 0.0 3.5 0.00 0.01 0.00 76 1012.8
20260505010903 39 0 0.0 1.7 0.00 0.01 0.00 78 1012.9
20260505010602 39 75 0.0 1.7 0.00 0.01 0.00 78 1012.8
20260505010302 39 106 0.0 3.5 0.00 0.01 0.00 77 1013.1
20260505010003 40 94 0.9 3.5 0.00 0.01 0.00 75 1013.2
20260505005702 40 96 1.7 3.5 0.00 0.01 0.00 74 1013.1
20260505005403 40 96 1.7 3.5 0.00 0.01 0.00 74 1013.2
20260505005103 39 94 1.7 3.5 0.00 0.01 0.00 74 1013.0
20260505004802 39 97 1.7 3.5 0.00 0.01 0.00 75 1013.3
20260505004524 39 91 1.7 3.5 0.00 0.01 0.00 78 1013.2
20260505004203 39 90 0.9 3.5 0.00 0.01 0.00 78 1013.3
20260505003903 39 92 0.9 3.5 0.00 0.01 0.00 78 1013.2
20260505003624 39 82 0.0 3.5 0.00 0.01 0.00 78 1013.4
20260505003323 39 80 0.0 3.5 0.00 0.01 0.00 78 1013.5
20260505003003 39 83 0.9 3.5 0.00 0.01 0.00 78 1013.4
20260505002703 39 89 0.9 3.5 0.00 0.01 0.00 81 1013.5
20260505002424 39 94 0.9 3.5 0.00 0.01 0.00 81 1013.3
20260505002103 39 98 0.9 3.5 0.00 0.01 0.00 81 1013.6
20260505001803 39 0 0.0 0.0 0.00 0.01 0.00 80 1013.5
20260505001502 39 0 0.0 0.0 0.00 0.01 0.00 80 1013.5
20260505001203 39 0 0.0 0.0 0.00 0.01 0.00 79 1013.5
20260505000902 39 0 0.0 1.7 0.00 0.01 0.00 79 1013.5
20260505000603 39 90 0.0 1.7 0.00 0.01 0.00 77 1013.5
20260505000303 39 90 0.9 5.2 0.00 0.01 0.00 77 1013.8
20260505000003 39 94 1.7 5.2 0.00 0.01 0.00 77 1013.8
20260504235702 39 97 2.6 5.2 0.00 0.01 0.00 78 1013.8
20260504235402 39 100 2.6 5.2 0.00 0.01 0.00 80 1013.7
20260504235124 39 104 1.7 3.5 0.00 0.01 0.00 81 1014.1
20260504234824 39 105 0.9 3.5 0.00 0.01 0.00 81 1014.1
20260504234503 39 100 0.9 3.5 0.00 0.01 0.00 81 1014.0
20260504234203 40 100 1.7 5.2 0.00 0.01 0.00 81 1014.1
20260504233903 40 99 2.6 5.2 0.00 0.01 0.00 80 1014.1
20260504233604 40 96 2.6 5.2 0.00 0.01 0.00 79 1014.4
20260504233302 41 94 2.6 5.2 0.00 0.01 0.00 75 1014.2
20260504233003 41 86 2.6 5.2 0.00 0.01 0.00 72 1014.4
20260504232703 41 79 2.6 3.5 0.00 0.01 0.00 71 1014.0
20260504232402 41 71 1.7 3.5 0.00 0.01 0.00 71 1014.3
20260504232102 41 62 0.9 3.5 0.00 0.01 0.00 70 1014.3
20260504231803 40 55 0.0 3.5 0.00 0.01 0.00 74 1014.5
20260504231503 40 54 0.0 3.5 0.00 0.01 0.00 76 1014.5
20260504231203 40 40 0.9 5.2 0.00 0.01 0.00 76 1014.6
20260504230902 41 16 0.9 6.1 0.00 0.01 0.00 75 1014.6
20260504230602 41 352 0.9 6.1 0.00 0.01 0.00 76 1014.6
20260504230303 41 343 0.9 6.1 0.00 0.01 0.00 75 1014.7
20260504230003 41 328 0.9 6.1 0.00 0.01 0.00 74 1014.8
20260504225703 41 323 0.0 1.7 0.00 0.01 0.00 77 1014.8
20260504225403 41 307 0.0 1.7 0.00 0.01 0.00 76 1014.8
20260504225103 41 294 0.0 1.7 0.00 0.01 0.00 75 1014.9
20260504224803 41 292 0.9 3.5 0.00 0.01 0.00 75 1014.8
20260504224524 41 302 0.9 3.5 0.00 0.01 0.00 77 1014.9
20260504224203 41 330 0.9 3.5 0.00 0.01 0.00 77 1015.0
20260504223903 41 47 1.7 3.5 0.00 0.01 0.00 77 1015.0
20260504223603 41 77 0.9 3.5 0.00 0.01 0.00 78 1014.9
20260504223303 40 82 1.7 3.5 0.00 0.01 0.00 76 1015.1
20260504223024 40 86 1.7 3.5 0.00 0.01 0.00 77 1015.2
20260504222723 40 84 1.7 3.5 0.00 0.01 0.00 79 1015.2
20260504222402 40 87 1.7 3.5 0.00 0.01 0.00 78 1015.0
20260504222102 40 87 0.9 3.5 0.00 0.01 0.00 79 1015.0
20260504221803 40 79 0.0 3.5 0.00 0.01 0.00 79 1015.1
20260504221503 40 0 0.0 1.7 0.00 0.01 0.00 79 1015.1
20260504221202 40 0 0.0 1.7 0.00 0.01 0.00 79 1015.0
20260504220902 40 0 0.0 1.7 0.00 0.01 0.00 79 1014.9
20260504220604 40 0 0.0 1.7 0.00 0.01 0.00 80 1015.0
20260504220303 40 0 0.0 1.7 0.00 0.01 0.00 81 1015.1
20260504220017 40 0 0.0 1.7 0.00 0.01 0.00 81 1015.1
20260504215704 40 343 0.0 3.5 0.00 0.01 0.01 80 1015.3
20260504215404 40 346 0.0 3.5 0.00 0.01 0.01 80 1015.1
20260504215103 40 344 0.0 3.5 0.00 0.01 0.01 78 1015.2
20260504214802 40 341 0.0 3.5 0.00 0.01 0.01 80 1015.2
20260504214502 40 339 0.0 1.7 0.00 0.01 0.01 80 1015.3
20260504214223 40 333 0.9 3.5 0.00 0.01 0.01 80 1015.4
20260504213903 40 334 0.9 3.5 0.00 0.01 0.01 81 1015.4
20260504213603 40 341 0.9 3.5 0.00 0.01 0.01 80 1015.5
20260504213303 40 14 0.9 3.5 0.00 0.01 0.01 81 1015.6
20260504213023 39 43 0.0 3.5 0.00 0.01 0.01 83 1015.5
20260504212703 39 21 0.9 5.2 0.00 0.01 0.01 84 1015.5
20260504212424 39 31 0.9 7.8 0.00 0.01 0.01 85 1015.4
20260504212103 39 357 3.5 11.3 0.00 0.01 0.01 85 1015.4
20260504211802 39 347 4.3 11.3 0.00 0.01 0.01 86 1015.5
20260504211502 39 341 5.2 11.3 0.00 0.01 0.01 86 1015.4
20260504211224 39 340 5.2 11.3 0.00 0.01 0.01 86 1015.7
20260504210903 39 346 4.3 9.6 0.00 0.01 0.01 86 1015.5
20260504210602 39 344 4.3 9.6 0.00 0.01 0.01 86 1015.6
20260504210324 39 347 3.5 9.6 0.00 0.01 0.01 87 1015.5
20260504210003 39 341 1.7 6.1 0.00 0.01 0.01 88 1015.6
20260504205723 39 343 1.7 6.1 0.00 0.01 0.01 89 1015.8
20260504205402 39 340 0.9 3.5 0.00 0.01 0.01 90 1015.9
20260504205102 39 332 0.9 3.5 0.00 0.01 0.01 90 1015.9
20260504204802 39 329 0.9 3.5 0.00 0.01 0.01 90 1015.9
20260504204502 39 324 0.9 3.5 0.00 0.01 0.01 89 1016.0
20260504204223 39 325 0.9 3.5 0.00 0.01 0.01 89 1016.1
20260504203903 39 332 0.9 3.5 0.00 0.01 0.01 89 1016.2
20260504203602 39 335 0.0 3.5 0.00 0.01 0.01 89 1016.0
20260504203302 39 19 0.0 3.5 0.00 0.01 0.01 89 1015.8
20260504203002 39 82 0.9 7.0 0.00 0.01 0.01 89 1015.9
20260504202702 39 90 2.6 7.8 0.00 0.01 0.01 87 1016.0
20260504202402 39 90 3.5 7.8 0.00 0.01 0.01 87 1015.8
20260504202102 39 90 3.5 7.8 0.00 0.01 0.01 86 1015.9
20260504201802 39 92 2.6 6.1 0.00 0.01 0.01 88 1015.9
20260504201503 39 96 1.7 3.5 0.00 0.01 0.01 88 1015.8
20260504201202 39 101 1.7 3.5 0.00 0.01 0.01 88 1016.0
20260504200902 39 106 0.9 3.5 0.00 0.01 0.01 89 1015.7
20260504200602 39 105 0.9 3.5 0.00 0.01 0.01 88 1016.1
20260504200302 39 106 0.0 1.7 0.00 0.01 0.01 88 1016.1
20260504200003 39 83 0.0 1.7 0.00 0.01 0.01 88 1015.8
20260504195703 39 0 0.0 1.7 0.00 0.01 0.01 88 1015.9
20260504195423 39 77 0.0 1.7 0.00 0.01 0.01 88 1015.9
20260504195102 39 78 0.0 1.7 0.00 0.01 0.01 87 1016.0
20260504194802 38 78 0.0 1.7 0.00 0.01 0.01 86 1015.8
20260504194523 38 67 0.0 1.7 0.01 0.01 0.01 89 1015.8
20260504194202 39 0 0.0 0.0 0.01 0.01 0.01 89 1015.8
20260504193902 39 0 0.0 0.0 0.01 0.01 0.01 88 1015.9
20260504193623 39 0 0.0 0.0 0.01 0.01 0.01 88 1015.8
20260504193303 39 0 0.0 0.0 0.01 0.01 0.01 88 1015.8
20260504193002 39 0 0.0 1.7 0.01 0.01 0.01 88 1015.6
20260504192702 39 0 0.0 1.7 0.01 0.01 0.01 88 1015.6
20260504192402 39 0 0.0 1.7 0.01 0.01 0.01 89 1015.6
20260504192102 39 0 0.0 1.7 0.01 0.01 0.01 89 1015.8
20260504191823 39 0 0.0 1.7 0.01 0.01 0.01 89 1015.7
20260504191502 39 0 0.0 0.0 0.01 0.01 0.01 88 1015.8
20260504191225 39 70 0.0 1.7 0.01 0.01 0.01 88 1015.6
20260504190903 39 75 0.9 3.5 0.01 0.01 0.01 88 1015.6
20260504190603 40 79 1.7 5.2 0.01 0.01 0.01 87 1015.6
20260504190303 40 81 2.6 5.2 0.01 0.01 0.01 86 1015.8
20260504190002 40 86 3.5 7.0 0.01 0.01 0.01 85 1015.6
20260504185703 40 87 4.3 7.0 0.01 0.01 0.01 85 1015.5
20260504185403 40 85 3.5 7.0 0.01 0.01 0.01 85 1015.7
20260504185103 40 85 3.5 7.0 0.01 0.01 0.01 84 1015.8
20260504184824 40 78 2.6 7.0 0.01 0.01 0.01 83 1015.5
20260504184524 40 79 2.6 7.0 0.00 0.00 0.00 82 1015.5
20260504184202 40 74 3.5 7.8 0.00 0.00 0.00 80 1015.5
20260504183925 40 75 2.6 7.8 0.00 0.00 0.00 80 1015.6
20260504183623 40 76 2.6 7.8 0.00 0.00 0.00 78 1015.6
20260504183302 40 84 3.5 9.6 0.00 0.00 0.00 79 1015.5
20260504183003 41 87 5.2 9.6 0.00 0.00 0.00 78 1015.5
20260504182702 41 85 5.2 9.6 0.00 0.00 0.00 77 1015.7
20260504182423 42 81 5.2 9.6 0.00 0.00 0.00 74 1015.6
20260504182102 42 78 4.3 9.6 0.00 0.00 0.00 72 1015.5